CW4829 Weather Reports


Display with metric or nautical units.
time (UTC)temp
F
wind
direction
speed
MPH
gust
MPH
rain 1hr
in
rain 24hr
in
rain mn
in
humidity
%
barometer
mb
20260901075617 76 165 1.0 3.0 0.00 0.00 0.00 87 1014.0
20260901075112 76 186 1.0 2.0 0.00 0.00 0.00 87 1014.0
20260901074021 76 186 1.0 3.0 0.00 0.00 0.00 87 1014.0
20260901073538 76 186 1.0 2.0 0.00 0.00 0.00 87 1014.0
20260901073039 76 186 1.0 2.0 0.00 0.00 0.00 87 1014.0
20260901072543 76 186 1.0 2.0 0.00 0.00 0.00 87 1014.0
20260901071521 76 186 0.0 2.0 0.00 0.00 0.00 86 1014.0
20260901071051 76 186 0.0 2.0 0.00 0.00 0.00 86 1014.1
20260901070556 76 186 0.0 2.0 0.00 0.00 0.00 86 1014.1
20260901070054 77 186 1.0 2.0 0.00 0.00 0.00 86 1014.1
20260901065538 77 186 1.0 2.0 0.00 0.00 0.00 85 1014.1
20260901065047 77 186 1.0 3.0 0.00 0.00 0.00 85 1014.1
20260901064534 77 186 1.0 4.0 0.00 0.00 0.00 85 1014.1
20260901064036 77 186 2.0 4.0 0.00 0.00 0.00 85 1014.1
20260901063554 77 202 1.0 2.0 0.00 0.00 0.00 85 1014.1
20260901063036 77 202 1.0 3.0 0.00 0.00 0.00 85 1014.1
20260901062605 77 202 2.0 3.0 0.00 0.00 0.00 85 1014.0
20260901061541 77 202 1.0 3.0 0.00 0.00 0.00 85 1014.0
20260901061105 77 202 2.0 4.0 0.00 0.00 0.00 85 1013.9
20260901060037 77 184 1.0 3.0 0.00 0.00 0.00 84 1013.9
20260901055529 77 184 0.0 3.0 0.00 0.00 0.00 84 1014.3
20260901055031 77 184 1.0 3.0 0.00 0.00 0.00 84 1014.3
20260901054554 77 184 1.0 3.0 0.00 0.00 0.00 84 1014.3
20260901054101 77 184 0.0 3.0 0.00 0.00 0.00 84 1014.6
20260901053527 77 184 1.0 3.0 0.00 0.00 0.00 84 1014.6
20260901053019 78 184 0.0 1.0 0.00 0.00 0.00 83 1014.6
20260901052545 78 184 0.0 0.0 0.00 0.00 0.00 83 1014.4
20260901052039 78 184 0.0 1.0 0.00 0.00 0.00 82 1014.4
20260901051542 78 184 0.0 1.0 0.00 0.00 0.00 82 1014.4
20260901051044 78 184 0.0 1.0 0.00 0.00 0.00 82 1014.3
20260901050540 78 184 0.0 1.0 0.00 0.00 0.00 81 1014.3
20260901050036 78 184 0.0 1.0 0.00 0.00 0.00 81 1014.3
20260901045530 79 184 0.0 1.0 0.00 0.00 0.00 80 1014.3
20260901045028 79 184 1.0 2.0 0.00 0.00 0.00 80 1014.3
20260901044555 79 184 1.0 2.0 0.00 0.00 0.00 80 1014.3
20260901044052 79 184 0.0 3.0 0.00 0.00 0.00 80 1014.2
20260901043523 79 184 0.0 2.0 0.00 0.00 0.00 80 1014.2
20260901043043 79 184 1.0 3.0 0.00 0.00 0.00 80 1014.2
20260901042541 79 184 1.0 5.0 0.00 0.00 0.00 79 1014.1
20260901042030 79 184 2.0 5.0 0.00 0.00 0.00 79 1014.1
20260901041520 79 192 2.0 3.0 0.00 0.00 0.00 79 1014.1
20260901041035 79 178 0.0 3.0 0.00 0.00 0.00 80 1014.0
20260901040521 79 178 1.0 5.0 0.00 0.00 0.00 80 1014.0
20260901040018 79 178 2.0 5.0 0.00 0.00 0.00 80 1014.0
20260901035546 79 208 0.0 3.0 0.00 0.00 0.00 80 1013.4
20260901034528 79 231 2.0 8.0 0.00 0.00 0.00 80 1013.4
20260901034051 79 205 4.0 9.0 0.00 0.00 0.00 80 1013.4
20260901033612 79 202 3.0 9.0 0.00 0.00 0.00 80 1013.4
20260901033020 79 223 4.0 9.0 0.00 0.00 0.00 80 1013.4
20260901032531 79 202 4.0 7.0 0.00 0.00 0.00 80 1013.8
20260901032038 79 169 4.0 7.0 0.00 0.00 0.00 80 1013.8
20260901031554 79 180 4.0 7.0 0.00 0.00 0.00 81 1013.8
20260901031108 78 178 2.0 7.0 0.00 0.00 0.00 81 1013.5
20260901030034 78 193 4.0 7.0 0.00 0.00 0.00 82 1013.5
20260901025551 77 186 3.0 7.0 0.00 0.00 0.00 83 1014.0
20260901025041 77 178 4.0 8.0 0.00 0.00 0.00 84 1014.0
20260901024028 75 204 3.0 6.0 0.00 0.00 0.00 87 1014.5
20260901023023 75 180 0.0 1.0 0.00 0.00 0.00 86 1014.5
20260901022033 75 180 0.0 0.0 0.00 0.00 0.00 86 1014.9
20260901021545 75 180 0.0 0.0 0.00 0.00 0.00 85 1014.9
20260901020544 75 180 0.0 0.0 0.00 0.00 0.00 85 1014.9
20260901020059 75 180 0.0 0.0 0.00 0.00 0.00 85 1014.9
20260901015626 76 180 0.0 0.0 0.00 0.00 0.00 84 1015.2
20260901014536 76 180 0.0 0.0 0.00 0.00 0.00 83 1015.2
20260901014058 76 180 0.0 0.0 0.00 0.00 0.00 83 1015.4
20260901013624 77 180 0.0 0.0 0.00 0.00 0.00 82 1015.4
20260901012524 77 180 0.0 0.0 0.00 0.00 0.00 80 1015.4
20260901012035 77 180 0.0 0.0 0.00 0.00 0.00 80 1015.4
20260901011548 77 180 0.0 0.0 0.00 0.00 0.00 79 1015.4
20260901011054 78 180 0.0 0.0 0.00 0.00 0.00 79 1015.0
20260901010542 78 180 0.0 0.0 0.00 0.00 0.00 78 1015.0
20260901005540 78 180 0.0 0.0 0.00 0.00 0.00 76 1014.9
20260901005053 79 180 0.0 0.0 0.00 0.00 0.00 76 1014.9
20260901004046 79 180 0.0 0.0 0.00 0.00 0.00 75 1014.7
20260901003024 80 180 0.0 0.0 0.00 0.00 0.00 74 1014.7
20260901002545 80 180 0.0 0.0 0.00 0.00 0.00 74 1014.9
20260901002102 81 180 0.0 0.0 0.00 0.00 0.00 72 1014.9
20260901001548 81 180 0.0 0.0 0.00 0.00 0.00 72 1014.9
20260901001056 81 180 0.0 0.0 0.00 0.00 0.00 72 1014.9
20260901000541 82 180 0.0 0.0 0.00 0.00 0.00 71 1014.9
20260901000109 82 180 0.0 0.0 0.00 0.00 0.00 70 1014.9
20260831235605 83 180 0.0 0.0 0.00 0.00 0.00 69 1014.9
20260831234545 84 180 0.0 0.0 0.00 0.00 0.00 70 1014.9
20260831234050 84 180 0.0 0.0 0.00 0.00 0.00 70 1014.7
20260831233029 84 180 0.0 1.0 0.00 0.00 0.00 68 1014.7
20260831232547 84 180 0.0 1.0 0.00 0.00 0.00 67 1014.8
20260831232104 84 180 0.0 2.0 0.00 0.00 0.00 66 1014.8
20260831231029 84 180 1.0 4.0 0.00 0.00 0.00 65 1014.7
20260831230548 84 180 1.0 4.0 0.00 0.00 0.00 66 1014.7
20260831225524 84 194 0.0 3.0 0.00 0.00 0.00 66 1014.6
20260831225053 85 194 1.0 3.0 0.00 0.00 0.00 66 1014.6
20260831224035 85 194 1.0 3.0 0.00 0.00 0.00 64 1014.5
20260831223553 85 194 1.0 4.0 0.00 0.00 0.00 64 1014.5
20260831223057 85 194 0.0 4.0 0.00 0.00 0.00 63 1014.5
20260831222539 85 190 1.0 3.0 0.00 0.00 0.00 63 1014.4
20260831222110 85 190 1.0 2.0 0.00 0.00 0.00 63 1014.4
20260831221054 85 190 1.0 4.0 0.00 0.00 0.00 63 1014.3
20260831220139 85 190 0.0 4.0 0.00 0.00 0.00 63 1014.3
20260831215541 85 182 1.0 4.0 0.00 0.00 0.00 63 1014.4
20260831215102 85 182 1.0 5.0 0.00 0.00 0.00 63 1014.4
20260831214610 85 182 2.0 5.0 0.00 0.00 0.00 62 1014.4
20260831214114 85 161 1.0 3.0 0.00 0.00 0.00 63 1014.3
20260831213046 85 205 0.0 5.0 0.00 0.00 0.00 64 1014.3
20260831212045 85 202 3.0 6.0 0.00 0.00 0.00 64 1014.4
20260831211604 85 178 2.0 13.0 0.00 0.00 0.00 64 1014.4
20260831211117 85 167 3.0 13.0 0.00 0.00 0.00 64 1014.4
20260831210615 85 288 3.0 8.0 0.00 0.00 0.00 64 1014.4
20260831210109 85 202 3.0 8.0 0.00 0.00 0.00 64 1014.4
20260831205517 85 181 3.0 8.0 0.00 0.00 0.00 65 1014.5
20260831204542 85 193 2.0 7.0 0.00 0.00 0.00 66 1014.5
20260831204017 85 157 2.0 7.0 0.00 0.00 0.00 66 1014.9
20260831203523 85 175 3.0 9.0 0.00 0.00 0.00 67 1014.9
20260831203046 85 213 3.0 7.0 0.00 0.00 0.00 66 1014.9
20260831202602 85 181 2.0 5.0 0.00 0.00 0.00 66 1014.9
20260831202102 85 231 1.0 5.0 0.00 0.00 0.00 66 1014.9
20260831201602 85 310 2.0 7.0 0.00 0.00 0.00 66 1014.9
20260831201110 86 176 3.0 7.0 0.00 0.00 0.00 66 1015.0
20260831200520 86 151 2.0 7.0 0.00 0.00 0.00 66 1015.0
20260831200030 86 167 2.0 6.0 0.00 0.00 0.00 65 1015.0
20260831195602 85 133 2.0 6.0 0.00 0.00 0.00 65 1015.3
20260831194519 85 182 3.0 6.0 0.00 0.00 0.00 64 1015.3
20260831194050 86 349 1.0 6.0 0.00 0.00 0.00 63 1015.4
20260831193606 86 199 2.0 8.0 0.00 0.00 0.00 62 1015.4
20260831193130 86 180 2.0 7.0 0.00 0.00 0.00 62 1015.4
20260831192016 86 187 3.0 8.0 0.00 0.00 0.00 63 1015.5
20260831191543 87 198 2.0 6.0 0.00 0.00 0.00 64 1015.5
20260831191053 87 213 3.0 7.0 0.00 0.00 0.00 64 1015.5
20260831190539 87 254 3.0 7.0 0.00 0.00 0.00 63 1015.5
20260831190045 87 205 3.0 8.0 0.00 0.00 0.00 63 1015.5
20260831185045 86 317 3.0 8.0 0.00 0.00 0.00 64 1015.9
20260831184548 87 302 4.0 8.0 0.00 0.00 0.00 62 1015.9
20260831184045 87 235 2.0 7.0 0.00 0.00 0.00 63 1016.0
20260831183558 87 297 3.0 7.0 0.00 0.00 0.00 63 1016.0
20260831182520 86 284 3.0 8.0 0.00 0.00 0.00 62 1016.1
20260831182110 86 294 4.0 11.0 0.00 0.00 0.00 62 1016.1
20260831181608 86 175 4.0 11.0 0.00 0.00 0.00 62 1016.1
20260831181107 86 218 3.0 8.0 0.00 0.00 0.00 64 1016.3
20260831180613 86 170 3.0 8.0 0.00 0.00 0.00 64 1016.3
20260831175549 86 261 4.0 8.0 0.00 0.00 0.00 65 1016.4
20260831174532 86 229 2.0 6.0 0.00 0.00 0.00 65 1016.4
20260831174055 86 185 3.0 6.0 0.00 0.00 0.00 65 1016.5
20260831173039 86 215 3.0 9.0 0.00 0.00 0.00 65 1016.5
20260831172553 86 298 3.0 9.0 0.00 0.00 0.00 66 1016.5
20260831171547 85 311 3.0 12.0 0.00 0.00 0.00 65 1016.5
20260831170544 85 249 4.0 8.0 0.00 0.00 0.00 65 1016.6
20260831165524 86 227 3.0 7.0 0.00 0.00 0.00 65 1016.6
20260831165046 86 165 3.0 7.0 0.00 0.00 0.00 67 1016.6
20260831164556 86 360 2.0 6.0 0.00 0.00 0.00 66 1016.6
20260831164119 86 188 3.0 7.0 0.00 0.00 0.00 66 1016.6
20260831163039 85 188 2.0 7.0 0.00 0.00 0.00 67 1016.6
20260831162053 84 178 4.0 8.0 0.00 0.00 0.00 68 1016.7
20260831161600 84 155 4.0 7.0 0.00 0.00 0.00 68 1016.7
20260831161055 84 325 4.0 7.0 0.00 0.00 0.00 69 1016.8
20260831160044 84 207 3.0 7.0 0.00 0.00 0.00 71 1016.8
20260831155049 84 309 3.0 5.0 0.00 0.00 0.00 72 1016.6
20260831154041 83 237 2.0 5.0 0.00 0.00 0.00 74 1016.6
20260831153543 82 171 3.0 6.0 0.00 0.00 0.00 73 1016.6
20260831152534 82 360 2.0 6.0 0.00 0.00 0.00 75 1016.6
20260831152050 81 189 2.0 5.0 0.00 0.00 0.00 76 1016.6
20260831151022 81 191 2.0 4.0 0.00 0.00 0.00 78 1016.5
20260831145522 80 183 2.0 5.0 0.00 0.00 0.00 79 1016.5
20260831145028 80 183 2.0 5.0 0.00 0.00 0.00 78 1016.5
20260831144530 80 235 3.0 5.0 0.00 0.00 0.00 79 1016.5
20260831144057 80 182 2.0 4.0 0.00 0.00 0.00 80 1016.3
20260831143023 79 206 2.0 5.0 0.00 0.00 0.00 82 1016.3
20260831142532 79 160 2.0 4.0 0.00 0.00 0.00 82 1016.2
20260831142034 78 184 1.0 5.0 0.00 0.00 0.00 84 1016.2
20260831141544 78 184 2.0 5.0 0.00 0.00 0.00 84 1016.2
20260831140523 77 209 0.0 3.0 0.00 0.00 0.00 85 1016.0
20260831140051 77 209 1.0 3.0 0.00 0.00 0.00 85 1016.0
20260831135558 77 209 1.0 4.0 0.00 0.00 0.00 86 1016.2
20260831135103 77 209 1.0 4.0 0.00 0.00 0.00 86 1016.2
20260831134604 76 229 1.0 3.0 0.00 0.00 0.00 87 1016.2
20260831133537 76 229 2.0 5.0 0.00 0.00 0.00 88 1016.3
20260831133050 75 205 3.0 5.0 0.00 0.00 0.00 89 1016.3
20260831132556 75 202 1.0 4.0 0.00 0.00 0.00 91 1016.3
20260831132108 75 199 2.0 4.0 0.00 0.00 0.00 92 1016.3
20260831131039 74 130 0.0 2.0 0.00 0.00 0.00 93 1016.3
20260831130018 74 130 0.0 0.0 0.00 0.00 0.00 93 1016.3
20260831125546 74 130 0.0 0.0 0.00 0.00 0.00 93 1016.2
20260831125116 73 130 0.0 0.0 0.00 0.00 0.00 93 1016.2
20260831124520 73 130 0.0 0.0 0.00 0.00 0.00 93 1016.2
20260831124023 73 130 0.0 0.0 0.00 0.00 0.00 93 1016.2
20260831123536 73 130 0.0 0.0 0.00 0.00 0.00 93 1016.2
20260831123033 73 130 0.0 0.0 0.00 0.00 0.00 93 1016.2
20260831122549 73 130 0.0 0.0 0.00 0.00 0.00 93 1016.2
20260831121617 73 130 0.0 1.0 0.00 0.00 0.00 93 1016.2
20260831121115 73 130 0.0 0.0 0.00 0.00 0.00 93 1016.1
20260831120549 73 130 0.0 0.0 0.00 0.00 0.00 93 1016.1
20260831120055 72 130 0.0 0.0 0.00 0.00 0.00 93 1016.1
20260831115035 72 130 0.0 0.0 0.00 0.00 0.00 93 1016.0
20260831114535 72 130 0.0 0.0 0.00 0.00 0.00 93 1016.0
20260831114051 72 130 0.0 0.0 0.00 0.00 0.00 93 1015.9
20260831113606 72 130 0.0 0.0 0.00 0.00 0.00 93 1015.9
20260831113136 72 130 0.0 0.0 0.00 0.00 0.00 93 1015.9
20260831112526 72 130 0.0 0.0 0.00 0.00 0.00 93 1015.6
20260831112046 72 130 0.0 0.0 0.00 0.00 0.00 93 1015.6
20260831111557 72 124 0.0 0.0 0.00 0.00 0.00 93 1015.6
20260831110522 72 124 0.0 1.0 0.00 0.00 0.00 93 1015.5
20260831110052 72 124 0.0 2.0 0.00 0.00 0.00 93 1015.5
20260831105043 72 124 0.0 1.0 0.00 0.00 0.00 93 1015.5
20260831104601 72 124 0.0 0.0 0.00 0.00 0.00 93 1015.5
20260831104112 72 124 0.0 0.0 0.00 0.00 0.00 93 1015.5
20260831103517 72 124 0.0 0.0 0.00 0.00 0.00 93 1015.5
20260831103036 72 124 0.0 0.0 0.00 0.00 0.00 93 1015.5
20260831102553 72 124 0.0 0.0 0.00 0.00 0.00 93 1015.5
20260831102102 72 124 0.0 0.0 0.00 0.00 0.00 93 1015.5
20260831101018 72 124 0.0 0.0 0.00 0.00 0.00 92 1015.4
20260831100532 72 124 0.0 0.0 0.00 0.00 0.00 92 1015.4
20260831095521 72 124 0.0 0.0 0.00 0.00 0.00 92 1015.4
20260831095047 72 124 0.0 0.0 0.00 0.00 0.00 92 1015.4
20260831094549 72 124 0.0 0.0 0.00 0.00 0.00 92 1015.4
20260831093535 72 124 0.0 0.0 0.00 0.00 0.00 92 1015.5
20260831093050 72 124 0.0 0.0 0.00 0.00 0.00 92 1015.5
20260831092030 72 124 0.0 0.0 0.00 0.00 0.00 92 1015.5
20260831090532 72 124 0.0 0.0 0.00 0.00 0.00 92 1015.5
20260831090028 72 124 0.0 0.0 0.00 0.00 0.00 92 1015.5
20260831085544 72 124 0.0 0.0 0.00 0.00 0.00 92 1015.4
20260831085104 72 124 0.0 0.0 0.00 0.00 0.00 92 1015.4
20260831084524 72 124 0.0 0.0 0.00 0.00 0.00 92 1015.4
20260831084042 72 124 0.0 0.0 0.00 0.00 0.00 92 1015.4
20260831083556 72 124 0.0 0.0 0.00 0.00 0.00 92 1015.4
20260831083031 72 124 0.0 0.0 0.00 0.00 0.00 92 1015.4
20260831082547 72 124 0.0 0.0 0.00 0.00 0.00 92 1015.4
20260831081530 72 124 0.0 0.0 0.00 0.00 0.00 92 1015.4
20260831080529 72 124 0.0 0.0 0.00 0.00 0.00 92 1015.1
20260831080059 72 124 0.0 0.0 0.00 0.00 0.00 92 1015.1